Moline, IL

6:36 PM CDT on September 21, 2017 (GMT -0500)
Quad-City International

Weather History for KMLI - June, 2013

Change the Weather History Date:

Saturday, June 22, 2013

  Actual Average Record
Temperature  
Mean Temperature 82 °F 74 °F  
Max Temperature 92 °F 84 °F 98 °F (1911)
Min Temperature 71 °F 63 °F 45 °F (1963)
Degree Days  
Heating Degree Days 0 0  
Month to date heating degree days 27 17  
Since 1 June heating degree days 27 17  
Since 1 July heating degree days 6335 6201  
Cooling Degree Days 17 9  
Month to date cooling degree days 118 139  
Year to date cooling degree days 208 215  
Since 1 June cooling degree days 118 139  
Growing Degree Days 31 (Base 50)    
Moisture  
Dew Point 69 °F    
Average Humidity 67    
Maximum Humidity 84    
Minimum Humidity 49    
Precipitation  
Precipitation T in 0.15 in 2.69 in (1974)
Month to date precipitation 0.94 3.25  
Year to date precipitation 24.09 17.11  
Snow  
Snow 0.00 in 0.00 in - ()
Month to date snowfall 0.0 0.0  
Since 1 June snowfall 0.0 0.0  
Since 1 July snowfall 34.5 31.6  
Snow Depth 0.00 in    
Sea Level Pressure  
Sea Level Pressure 29.97 in    
Wind  
Wind Speed 12 mph (SE)    
Max Wind Speed 21 mph    
Max Gust Speed 28 mph    
Visibility 10 miles    
Events Rain    
T = Trace of Precipitation, MM = Missing Value Source: NWS Daily Summary

Daily Weather History Graph

Daily Weather History Graph

Search for Another Location

Airport or City:

Trip Planner

Search our weather history database for the weather conditions in past years. The results will help you decide how hot, cold, wet, or windy it might be!

Date:

Astronomy

Jun. 22, 2013 Rise Set
Actual Time 5:28 AM CDT 8:39 PM CDT
Civil Twilight 4:54 AM CDT 9:13 PM CDT
Nautical Twilight 4:11 AM CDT 9:57 PM CDT
Astronomical Twilight 3:18 AM CDT 10:49 PM CDT
Moon 7:53 PM CDT (6/22) 4:42 AM CDT (6/22)
Length of Visible Light 16h 18m
Length of Day
15h 10m
Waxing Gibbous, 99% of the Moon is Illuminated
Jun 22
Waxing Gibbous
Jun 23
Full
Jun 29
Last Quarter
Jul 8
New
Jul 15
First Quarter

Hourly Weather History & Observations

Time (CDT) Temp. Heat Index Dew Point Humidity Pressure Visibility Wind Dir Wind Speed Gust Speed Precip Events Conditions
12:52 AM 77.0 °F - 69.1 °F 76% 29.95 in 10.0 mi South 10.4 mph - N/A   Clear
1:52 AM 78.1 °F - 70.0 °F 76% 29.91 in 10.0 mi South 12.7 mph - N/A   Clear
2:52 AM 79.0 °F - 71.1 °F 77% 29.94 in 10.0 mi South 10.4 mph 18.4 mph N/A   Clear
3:52 AM 79.0 °F - 71.1 °F 77% 29.96 in 10.0 mi SSW 11.5 mph - N/A   Clear
4:52 AM 79.0 °F - 71.1 °F 77% 29.98 in 10.0 mi SSW 5.8 mph - N/A   Clear
5:52 AM 78.1 °F - 72.0 °F 81% 30.00 in 10.0 mi NE 3.5 mph - 0.00 in Rain Light Rain
6:39 AM 75.2 °F - 68.0 °F 78% 30.06 in 10.0 mi NE 10.4 mph 16.1 mph 0.00 in   Overcast
6:52 AM 72.0 °F - 64.9 °F 78% 30.04 in 10.0 mi East 18.4 mph - 0.00 in   Overcast
7:31 AM 71.6 °F - 64.4 °F 78% 30.03 in 10.0 mi East 17.3 mph - N/A   Mostly Cloudy
7:52 AM 72.0 °F - 66.0 °F 81% 30.00 in 10.0 mi ESE 11.5 mph - N/A   Partly Cloudy
8:52 AM 75.9 °F - 66.9 °F 74% 30.05 in 10.0 mi East 15.0 mph - N/A   Partly Cloudy
9:47 AM 75.2 °F - 68.0 °F 78% 30.06 in 10.0 mi ENE 12.7 mph - N/A   Mostly Cloudy
9:52 AM 75.9 °F - 68.0 °F 76% 30.05 in 10.0 mi ENE 12.7 mph - N/A   Mostly Cloudy
10:52 AM 73.9 °F - 64.9 °F 73% 30.06 in 10.0 mi East 10.4 mph - N/A   Overcast
11:19 AM 78.8 °F - 66.2 °F 65% 30.05 in 10.0 mi East 15.0 mph - N/A   Scattered Clouds
11:52 AM 80.1 °F 82.7 °F 68.0 °F 67% 30.02 in 10.0 mi ESE 11.5 mph - N/A   Clear
12:52 PM 84.0 °F 89.6 °F 72.0 °F 67% 29.98 in 10.0 mi East 15.0 mph - N/A   Clear
1:52 PM 88.0 °F 96.5 °F 73.9 °F 63% 29.96 in 10.0 mi SE 11.5 mph 17.3 mph N/A   Clear
2:52 PM 91.0 °F 99.3 °F 73.0 °F 55% 29.93 in 10.0 mi South 8.1 mph - N/A   Partly Cloudy
3:52 PM 91.9 °F 96.9 °F 69.1 °F 47% 29.88 in 10.0 mi South 10.4 mph - N/A   Clear
4:52 PM 90.0 °F 95.4 °F 70.0 °F 52% 29.89 in 10.0 mi SSE 10.4 mph - N/A   Clear
5:52 PM 84.9 °F 91.4 °F 73.0 °F 67% 29.91 in 10.0 mi SSE 16.1 mph 21.9 mph N/A   Clear
6:52 PM 82.9 °F 87.5 °F 71.1 °F 67% 29.91 in 10.0 mi South 13.8 mph 20.7 mph N/A   Clear
7:52 PM 82.0 °F 84.9 °F 68.0 °F 62% 29.90 in 10.0 mi South 18.4 mph 25.3 mph N/A   Clear
8:52 PM 79.0 °F - 69.1 °F 72% 29.92 in 10.0 mi South 11.5 mph 20.7 mph N/A   Clear
9:52 PM 75.9 °F - 66.9 °F 74% 29.93 in 10.0 mi South 13.8 mph 23.0 mph N/A   Clear
10:52 PM 75.9 °F - 66.0 °F 71% 29.97 in 10.0 mi SSW 6.9 mph - N/A   Clear
11:52 PM 75.9 °F - 64.9 °F 69% 29.97 in 10.0 mi South 12.7 mph 21.9 mph N/A   Clear